Weather History for Fairfield, IL

Change the Weather History Date:

Friday, February 21, 2014

  Actual Average (KMVN) Record (KMVN)
Temperature  
Mean Temperature 44 °F -  
Max Temperature 51 °F 44 °F 66 °F (1997)
Min Temperature 37 °F 28 °F 17 °F (2008)
Degree Days  
Heating Degree Days 21    
Moisture  
Dew Point 26 °F    
Average Humidity 54    
Maximum Humidity 75    
Minimum Humidity 30    
Precipitation  
Precipitation 0.00 in - - ()
Sea Level Pressure  
Sea Level Pressure 29.90 in    
Wind  
Wind Speed 10 mph (SW)    
Max Wind Speed 17 mph    
Max Gust Speed 25 mph    
Visibility 10 miles    
Events      
Averages and records for this station are not official NWS values.
T = Trace of Precipitation, MM = Missing Value Source: NWS Daily Summary

Daily Weather History Graph

Daily Weather History Graph

Search for Another Location

Airport:

Trip Planner

Search our weather history database for the weather conditions in past years. The results will help you decide how hot, cold, wet, or windy it might be!

Date:

Astronomy

Feb. 21, 2014 Rise Set
Actual Time 6:36 AM CST 5:38 PM CST
Civil Twilight 6:09 AM CST 6:05 PM CST
Nautical Twilight 5:38 AM CST 6:36 PM CST
Astronomical Twilight 5:08 AM CST 7:06 PM CST
Moon No Moon Rise 10:05 AM CST (2/21)
Length of Visible Light 11h 55m
Length of Day
11h 01m
Waning Gibbous, 60% of the Moon is Illuminated
Feb 21
Waning Gibbous
Feb 22
Last Quarter
Mar 1
New
Mar 8
First Quarter
Mar 16
Full

Hourly Weather History & Observations

Time (CST) Temp. Windchill Dew Point Humidity Pressure Visibility Wind Dir Wind Speed Gust Speed Precip Events Conditions
12:15 AM 37.4 °F 32.1 °F 30.2 °F 75% 29.76 in 10.0 mi SSW 6.9 mph - N/A   Clear
12:35 AM 37.4 °F 32.8 °F 30.2 °F 75% 29.76 in 10.0 mi SSW 5.8 mph - N/A   Clear
12:55 AM 37.4 °F 32.1 °F 30.2 °F 75% 29.78 in 10.0 mi SSW 6.9 mph - N/A   Clear
1:15 AM 37.4 °F 30.8 °F 30.2 °F 75% 29.78 in 10.0 mi SSW 9.2 mph - N/A   Clear
1:35 AM 37.4 °F 31.4 °F 30.2 °F 75% 29.78 in 10.0 mi SSW 8.1 mph - N/A   Clear
1:55 AM 37.4 °F 31.4 °F 30.2 °F 75% 29.78 in 10.0 mi SSW 8.1 mph - N/A   Clear
2:15 AM 37.4 °F 31.4 °F 30.2 °F 75% 29.78 in 10.0 mi SW 8.1 mph - N/A   Clear
2:35 AM 37.4 °F 31.4 °F 30.2 °F 75% 29.77 in 10.0 mi SW 8.1 mph - N/A   Clear
2:56 AM 37.4 °F 29.8 °F 30.2 °F 75% 29.77 in 10.0 mi SW 11.5 mph - N/A   Clear
3:15 AM 37.4 °F 30.3 °F 30.2 °F 75% 29.78 in 10.0 mi SW 10.4 mph 16.1 mph N/A   Clear
3:35 AM 37.4 °F 30.8 °F 30.2 °F 75% 29.78 in 10.0 mi SW 9.2 mph - N/A   Clear
3:55 AM 37.4 °F 29.3 °F 30.2 °F 75% 29.79 in 10.0 mi SW 12.7 mph 18.4 mph N/A   Clear
4:15 AM 39.2 °F 32.0 °F 30.2 °F 70% 29.79 in 10.0 mi SW 11.5 mph - N/A   Scattered Clouds
4:35 AM 39.2 °F 30.5 °F 28.4 °F 65% 29.80 in 10.0 mi WSW 16.1 mph 24.2 mph N/A   Scattered Clouds
4:55 AM 39.2 °F 32.0 °F 28.4 °F 65% 29.81 in 10.0 mi WSW 11.5 mph 20.7 mph N/A   Clear
5:15 AM 39.2 °F 30.5 °F 26.6 °F 61% 29.82 in 10.0 mi WSW 16.1 mph 24.2 mph N/A   Clear
5:35 AM 39.2 °F 30.5 °F 24.8 °F 56% 29.83 in 10.0 mi WSW 16.1 mph 23.0 mph N/A   Clear
5:55 AM 39.2 °F 32.5 °F 24.8 °F 56% 29.84 in 10.0 mi WSW 10.4 mph 18.4 mph N/A   Clear
6:15 AM 37.4 °F 30.8 °F 26.6 °F 65% 29.85 in 10.0 mi WSW 9.2 mph - N/A   Clear
6:36 AM 37.4 °F 27.8 °F 24.8 °F 60% 29.85 in 10.0 mi West 17.3 mph 24.2 mph N/A   Clear
6:55 AM 37.4 °F 30.3 °F 24.8 °F 60% 29.86 in 10.0 mi West 10.4 mph 20.7 mph N/A   Clear
7:15 AM 37.4 °F 30.8 °F 24.8 °F 60% 29.86 in 10.0 mi West 9.2 mph 23.0 mph N/A   Clear
7:35 AM 37.4 °F 30.8 °F 24.8 °F 60% 29.88 in 10.0 mi WSW 9.2 mph 18.4 mph N/A   Clear
7:55 AM 37.4 °F 28.9 °F 23.0 °F 56% 29.89 in 10.0 mi WSW 13.8 mph 24.2 mph N/A   Clear
8:15 AM 39.2 °F 32.0 °F 23.0 °F 52% 29.90 in 10.0 mi West 11.5 mph 20.7 mph N/A   Clear
8:35 AM 39.2 °F 32.0 °F 21.2 °F 49% 29.90 in 10.0 mi West 11.5 mph 24.2 mph N/A   Clear
8:55 AM 39.2 °F 32.5 °F 21.2 °F 49% 29.91 in 10.0 mi West 10.4 mph 18.4 mph N/A   Clear
9:15 AM 39.2 °F 30.5 °F 23.0 °F 52% 29.92 in 10.0 mi WSW 16.1 mph 23.0 mph N/A   Clear
9:35 AM 39.2 °F 33.0 °F 19.4 °F 45% 29.94 in 10.0 mi West 9.2 mph 24.2 mph N/A   Clear
9:55 AM 41.0 °F 32.8 °F 21.2 °F 45% 29.94 in 10.0 mi WSW 16.1 mph 25.3 mph N/A   Clear
10:16 AM 42.8 °F 36.6 °F 21.2 °F 42% 29.95 in 10.0 mi West 11.5 mph 20.7 mph N/A   Clear
10:35 AM 42.8 °F 37.0 °F 19.4 °F 39% 29.96 in 10.0 mi West 10.4 mph 19.6 mph N/A   Clear
10:55 AM 42.8 °F 36.6 °F 19.4 °F 39% 29.97 in 10.0 mi West 11.5 mph 19.6 mph N/A   Clear
11:15 AM 44.6 °F 38.4 °F 19.4 °F 37% 29.97 in 10.0 mi WSW 12.7 mph 19.6 mph N/A   Clear
11:35 AM 44.6 °F 38.1 °F 19.4 °F 37% 29.97 in 10.0 mi West 13.8 mph 20.7 mph N/A   Clear
11:55 AM 46.4 °F 40.1 °F 19.4 °F 34% 29.97 in 10.0 mi WSW 15.0 mph 20.7 mph N/A   Clear
12:15 PM 46.4 °F 41.9 °F 21.2 °F 37% 29.96 in 10.0 mi West 9.2 mph 18.4 mph N/A   Clear
12:35 PM 46.4 °F 40.7 °F 19.4 °F 34% 29.96 in 10.0 mi West 12.7 mph 21.9 mph N/A   Clear
12:55 PM 48.2 °F - 19.4 °F 32% 29.96 in 10.0 mi WSW 13.8 mph 20.7 mph N/A   Clear
1:15 PM 48.2 °F - 19.4 °F 32% 29.95 in 10.0 mi WSW 11.5 mph 17.3 mph N/A   Clear
1:35 PM 48.2 °F - 19.4 °F 32% 29.95 in 10.0 mi WSW 13.8 mph 19.6 mph N/A   Clear
1:56 PM 50.0 °F - 19.4 °F 30% 29.95 in 10.0 mi West 8.1 mph 17.3 mph N/A   Clear
2:15 PM 50.0 °F - 19.4 °F 30% 29.95 in 10.0 mi SW 13.8 mph 19.6 mph N/A   Clear
2:35 PM 50.0 °F - 19.4 °F 30% 29.94 in 10.0 mi SW 11.5 mph 17.3 mph N/A   Clear
2:55 PM 51.8 °F - 21.2 °F 30% 29.94 in 10.0 mi SSW 12.7 mph 19.6 mph N/A   Clear
3:15 PM 51.8 °F - 21.2 °F 30% 29.94 in 10.0 mi SW 13.8 mph - N/A   Clear
3:35 PM 51.8 °F - 21.2 °F 30% 29.94 in 10.0 mi SW 11.5 mph 18.4 mph N/A   Clear
3:55 PM 51.8 °F - 23.0 °F 33% 29.94 in 10.0 mi SW 8.1 mph - N/A   Clear
4:15 PM 51.8 °F - 21.2 °F 30% 29.93 in 10.0 mi SSW 9.2 mph - N/A   Clear
4:35 PM 51.8 °F - 23.0 °F 33% 29.93 in 10.0 mi SSW 9.2 mph - N/A   Clear
4:55 PM 50.0 °F - 26.6 °F 40% 29.93 in 10.0 mi South 5.8 mph - N/A   Clear
5:15 PM 48.2 °F - 28.4 °F 46% 29.93 in 10.0 mi South 5.8 mph - N/A   Clear
5:35 PM 46.4 °F 43.5 °F 28.4 °F 50% 29.93 in 10.0 mi South 5.8 mph - N/A   Clear
5:55 PM 44.6 °F 39.2 °F 28.4 °F 53% 29.93 in 10.0 mi South 10.4 mph - N/A   Clear
6:15 PM 44.6 °F 38.8 °F 28.4 °F 53% 29.94 in 10.0 mi South 11.5 mph - N/A   Clear
6:35 PM 44.6 °F 38.4 °F 30.2 °F 57% 29.94 in 10.0 mi South 12.7 mph - N/A   Clear
6:55 PM 42.8 °F 36.6 °F 30.2 °F 61% 29.94 in 10.0 mi South 11.5 mph - N/A   Clear
7:15 PM 42.8 °F 37.0 °F 30.2 °F 61% 29.94 in 10.0 mi South 10.4 mph - N/A   Clear
7:35 PM 42.8 °F 37.0 °F 30.2 °F 61% 29.94 in 10.0 mi South 10.4 mph - N/A   Clear
7:55 PM 41.0 °F 34.7 °F 30.2 °F 65% 29.94 in 10.0 mi South 10.4 mph - N/A   Clear
8:15 PM 41.0 °F 35.2 °F 30.2 °F 65% 29.94 in 10.0 mi South 9.2 mph - N/A   Clear
8:35 PM 39.2 °F 33.0 °F 30.2 °F 70% 29.94 in 10.0 mi South 9.2 mph - N/A   Clear
8:55 PM 39.2 °F 33.0 °F 30.2 °F 70% 29.94 in 10.0 mi South 9.2 mph - N/A   Clear
9:15 PM 39.2 °F 33.0 °F 30.2 °F 70% 29.94 in 10.0 mi South 9.2 mph - N/A   Clear
9:35 PM 39.2 °F 34.2 °F 28.4 °F 65% 29.94 in 10.0 mi SSW 6.9 mph - N/A   Clear
9:55 PM 41.0 °F 35.2 °F 30.2 °F 65% 29.94 in 10.0 mi SSW 9.2 mph - N/A   Clear
10:15 PM 42.8 °F 37.5 °F 30.2 °F 61% 29.94 in 10.0 mi SSW 9.2 mph - N/A   Clear
10:35 PM 42.8 °F 37.0 °F 30.2 °F 61% 29.94 in 10.0 mi SSW 10.4 mph - N/A   Scattered Clouds
10:55 PM 44.6 °F 38.8 °F 30.2 °F 57% 29.94 in 10.0 mi SSW 11.5 mph - N/A   Scattered Clouds
11:15 PM 44.6 °F 39.2 °F 30.2 °F 57% 29.94 in 10.0 mi SSW 10.4 mph - N/A   Scattered Clouds
11:35 PM 44.6 °F 38.8 °F 30.2 °F 57% 29.94 in 10.0 mi SSW 11.5 mph - N/A   Mostly Cloudy
11:55 PM 44.6 °F 39.7 °F 30.2 °F 57% 29.94 in 10.0 mi SW 9.2 mph - N/A   Scattered Clouds